sat.trackr.live / text

‹ back to catalog

STARLINK-35737

NORAD 66219 · 2025-244P

PAYLOAD ACTIVE UNKNOWN

§ Identity

Operator
Country
US
Launch date
2025-10-28
Launch site
AFWTR
Launch vehicle
Mass (kg)
RCS (m²)

Purposes: comms

External: N2YO · Heavens-Above · Gunter

§ Orbital elements

Epoch: 2026-09-20T21:16:08.229504Z

Period
93.85 min
Inclination
53.1580°
Eccentricity
0.0000893
Mean motion
15.34409785 rev/d
Perigee alt
462.1 km
Apogee alt
463.3 km
Semi-major
6,840.8 km
B*
5.8024e-4
RAAN
39.7934°
Arg perigee
87.4333°
Mean anomaly
272.6771°
Rev number
5,159

§ Raw data

STARLINK-357371 66219U 25244P   26263.88620636  .00019285  00000+0  58024-3 0  99952 66219  53.1580  39.7934 0000893  87.4333 272.6771 15.34409785 51599

JSON: /api/v1/satellites/66219 · /tle

For live sub-satellite position, see the globe view (requires WebGL).

§ Visibility from observer

Set your observer location to see the next 7 days of passes ≥ 10°. The values pass through the URL so the page stays shareable.

No JS? Fill the form by hand. The geolocation button needs JavaScript.